Location: Newark
(12.0500°N, 61.7500°W)
Time: 02:38:13
(UTC+00:00)

Envisat - Pass Details

Date: 26 January 2020
Orbit: 764 x 766 km, 98.1° (Epoch: 25 February)

Event Time Altitude Azimuth Distance (km) Brightness Sun altitude
Rises 23:22:15 0° 205° (SSW) 3,222 6.8 -18.5°
Reaches altitude 10° 23:25:39 10° 229° (SW) 2,297 6.4 -19.3°
Maximum altitude 23:28:17 14° 261° (W) 2,015 6.3 -19.9°
Drops below altitude 10° 23:30:55 10° 293° (WNW) 2,297 6.2 -20.5°
Sets 23:34:20 0° 317° (NW) 3,223 6.6 -21.3°
